Charleston, SC

2:51 PM EDT on September 24, 2017 (GMT -0400)
Charleston Executive

Weather History for KJZI - January, 2013

Change the Weather History Date:

Wednesday, January 9, 2013

  Actual Average (KCHS) Record (KCHS)
Temperature  
Mean Temperature 64 °F -  
Max Temperature 71 °F 56 °F 78 °F (2012)
Min Temperature 57 °F 36 °F 11 °F (1970)
Degree Days  
Heating Degree Days 1    
Growing Degree Days 14 (Base 50)    
Moisture  
Dew Point 56 °F    
Average Humidity 79    
Maximum Humidity 100    
Minimum Humidity 64    
Precipitation  
Precipitation 0.00 in - - ()
Sea Level Pressure  
Sea Level Pressure 30.36 in    
Wind  
Wind Speed 4 mph (NNE)    
Max Wind Speed 12 mph    
Max Gust Speed -    
Visibility 10 miles    
Events Fog    
Averages and records for this station are not official NWS values.
T = Trace of Precipitation, MM = Missing Value Source: NWS Daily Summary

Daily Weather History Graph

Daily Weather History Graph

Search for Another Location

Airport or City:

Trip Planner

Search our weather history database for the weather conditions in past years. The results will help you decide how hot, cold, wet, or windy it might be!

Date:

Astronomy

Jan. 09, 2013 Rise Set
Actual Time 7:23 AM EST 5:31 PM EST
Civil Twilight 6:56 AM EST 5:58 PM EST
Nautical Twilight 6:25 AM EST 6:29 PM EST
Astronomical Twilight 5:55 AM EST 6:58 PM EST
Moon 5:00 AM EST (1/9) 3:31 PM EST (1/9)
Length of Visible Light 11h 02m
Length of Day
10h 08m
Waning Crescent, 6% of the Moon is Illuminated
Jan 9
Waning Crescent
Jan 11
New
Jan 18
First Quarter
Jan 26
Full
Feb 3
Last Quarter

Hourly Weather History & Observations

Time (EST) Temp. Dew Point Humidity Pressure Visibility Wind Dir Wind Speed Gust Speed Precip Events Conditions
12:15 AM 57.2 °F 51.8 °F 82% 30.35 in 10.0 mi NNE 4.6 mph - 0.00 in   Overcast
12:35 AM 57.2 °F 51.8 °F 82% 30.34 in 10.0 mi North 3.5 mph - 0.00 in   Overcast
1:35 AM 57.2 °F 51.8 °F 82% 30.33 in 10.0 mi Calm Calm - 0.00 in   Overcast
1:55 AM 57.2 °F 51.8 °F 82% 30.33 in 10.0 mi North 4.6 mph - 0.00 in   Mostly Cloudy
2:15 AM 59.0 °F 50.0 °F 72% 30.33 in 10.0 mi NNE 6.9 mph - 0.00 in   Overcast
2:35 AM 59.0 °F 50.0 °F 72% 30.33 in 10.0 mi NNE 5.8 mph - 0.00 in   Overcast
2:55 AM 57.2 °F 50.0 °F 77% 30.32 in 10.0 mi North 3.5 mph - 0.00 in   Scattered Clouds
3:15 AM 57.2 °F 50.0 °F 77% 30.32 in 10.0 mi Calm Calm - 0.00 in   Scattered Clouds
3:35 AM 57.2 °F 50.0 °F 77% 30.32 in 10.0 mi North 4.6 mph - 0.00 in   Mostly Cloudy
3:55 AM 59.0 °F 51.8 °F 77% 30.33 in 10.0 mi North 5.8 mph - 0.00 in   Mostly Cloudy
4:15 AM 59.0 °F 51.8 °F 77% 30.32 in 10.0 mi North 5.8 mph - 0.00 in   Mostly Cloudy
4:35 AM 59.0 °F 51.8 °F 77% 30.32 in 10.0 mi North 5.8 mph - 0.00 in   Overcast
4:55 AM 59.0 °F 53.6 °F 82% 30.31 in 10.0 mi NNE 3.5 mph - 0.00 in   Overcast
5:15 AM 59.0 °F 53.6 °F 82% 30.32 in 10.0 mi Calm Calm - 0.00 in   Overcast
5:35 AM 59.0 °F 53.6 °F 82% 30.32 in 10.0 mi Calm Calm - 0.00 in   Overcast
5:55 AM 60.8 °F 55.4 °F 82% 30.32 in 10.0 mi Calm Calm - 0.00 in   Overcast
6:15 AM 60.8 °F 55.4 °F 82% 30.33 in 10.0 mi Calm Calm - 0.00 in   Overcast
6:35 AM 59.0 °F 55.4 °F 88% 30.34 in 7.0 mi Calm Calm - 0.00 in   Light Drizzle
6:55 AM 59.0 °F 55.4 °F 88% 30.34 in 10.0 mi NNE 3.5 mph - 0.00 in   Mostly Cloudy
7:15 AM 59.0 °F 55.4 °F 88% 30.35 in 10.0 mi North 4.6 mph - 0.00 in   Mostly Cloudy
7:35 AM 59.0 °F 55.4 °F 88% 30.35 in 10.0 mi North 4.6 mph - 0.00 in   Mostly Cloudy
7:55 AM 59.0 °F 55.4 °F 88% 30.36 in 10.0 mi Calm Calm - 0.00 in   Mostly Cloudy
8:15 AM 60.8 °F 57.2 °F 88% 30.37 in 10.0 mi Calm Calm - 0.00 in   Overcast
8:35 AM 60.8 °F 57.2 °F 88% 30.37 in 10.0 mi North 4.6 mph - 0.00 in   Mostly Cloudy
8:55 AM 60.8 °F 57.2 °F 88% 30.37 in 9.0 mi North 4.6 mph - 0.00 in   Mostly Cloudy
9:35 AM 62.6 °F 57.2 °F 82% 30.38 in 10.0 mi Calm Calm - 0.00 in   Overcast
9:55 AM 64.4 °F 59.0 °F 83% 30.39 in 10.0 mi North 4.6 mph - 0.00 in   Overcast
10:15 AM 64.4 °F 59.0 °F 83% 30.39 in 10.0 mi NNE 5.8 mph - 0.00 in   Overcast
10:35 AM 66.2 °F 57.2 °F 73% 30.40 in 10.0 mi NNE 6.9 mph - 0.00 in   Overcast
10:55 AM 66.2 °F 59.0 °F 78% 30.39 in 10.0 mi ENE 10.4 mph - 0.00 in   Mostly Cloudy
11:15 AM 68.0 °F 59.0 °F 73% 30.38 in 10.0 mi ENE 6.9 mph - 0.00 in   Overcast
11:35 AM 69.8 °F 59.0 °F 68% 30.37 in 10.0 mi ENE 9.2 mph - 0.00 in   Overcast
11:55 AM 69.8 °F 59.0 °F 68% 30.37 in 10.0 mi ENE 4.6 mph - 0.00 in   Mostly Cloudy
12:15 PM 69.8 °F 57.2 °F 64% 30.36 in 10.0 mi East 8.1 mph - 0.00 in   Mostly Cloudy
12:35 PM 69.8 °F 57.2 °F 64% 30.35 in 10.0 mi East 11.5 mph - 0.00 in   Mostly Cloudy
1:15 PM 69.8 °F 60.8 °F 73% 30.35 in 10.0 mi NE 8.1 mph - 0.00 in   Overcast
1:35 PM 69.8 °F 59.0 °F 68% 30.35 in 10.0 mi NNE 4.6 mph - 0.00 in   Overcast
1:55 PM 69.8 °F 57.2 °F 64% 30.35 in 10.0 mi NE 8.1 mph - 0.00 in   Overcast
2:15 PM 69.8 °F 57.2 °F 64% 30.35 in 10.0 mi NNE 4.6 mph - 0.00 in   Overcast
2:35 PM 71.6 °F 59.0 °F 64% 30.34 in 10.0 mi NNE 5.8 mph - 0.00 in   Overcast
3:15 PM 71.6 °F 60.8 °F 69% 30.34 in 10.0 mi NNE 8.1 mph - 0.00 in   Overcast
3:35 PM 71.6 °F 60.8 °F 69% 30.34 in 10.0 mi NE 4.6 mph - 0.00 in   Overcast
3:55 PM 71.6 °F 60.8 °F 69% 30.35 in 10.0 mi NE 4.6 mph - 0.00 in   Overcast
4:15 PM 71.6 °F 60.8 °F 69% 30.35 in 10.0 mi ENE 6.9 mph - 0.00 in   Overcast
4:35 PM 71.6 °F 60.8 °F 69% 30.36 in 10.0 mi Calm Calm - 0.00 in   Overcast
4:55 PM 69.8 °F 59.0 °F 68% 30.36 in 10.0 mi Calm Calm - 0.00 in   Overcast
5:15 PM 68.0 °F 59.0 °F 73% 30.37 in 10.0 mi Calm Calm - 0.00 in   Overcast
5:35 PM 66.2 °F 57.2 °F 73% 30.38 in 10.0 mi East 4.6 mph - 0.00 in   Overcast
5:55 PM 64.4 °F 57.2 °F 77% 30.38 in 10.0 mi Calm Calm - 0.00 in   Overcast
6:15 PM 64.4 °F 57.2 °F 77% 30.38 in 10.0 mi Calm Calm - 0.00 in   Mostly Cloudy
6:35 PM 62.6 °F 57.2 °F 82% 30.39 in 10.0 mi East 3.5 mph - 0.00 in   Partly Cloudy
7:15 PM 62.6 °F 55.4 °F 77% 30.39 in 10.0 mi Calm Calm - 0.00 in   Clear
7:35 PM 62.6 °F 57.2 °F 82% 30.40 in 10.0 mi NNE 3.5 mph - 0.00 in   Clear
7:55 PM 62.6 °F 57.2 °F 82% 30.40 in 10.0 mi Calm Calm - 0.00 in   Clear
8:15 PM 62.6 °F 57.2 °F 82% 30.39 in 10.0 mi Calm Calm - 0.00 in   Clear
8:35 PM 60.8 °F 57.2 °F 88% 30.39 in 10.0 mi Calm Calm - 0.00 in   Clear
8:55 PM 62.6 °F 59.0 °F 88% 30.39 in 10.0 mi Calm Calm - 0.00 in   Clear
9:35 PM 60.8 °F 57.2 °F 88% 30.38 in 10.0 mi SE 3.5 mph - 0.00 in   Clear
9:55 PM 59.0 °F 57.2 °F 94% 30.39 in 10.0 mi Calm Calm - 0.00 in   Partly Cloudy
10:15 PM 59.0 °F 57.2 °F 94% 30.39 in 8.0 mi Calm Calm - 0.00 in   Mostly Cloudy
10:55 PM 59.0 °F 57.2 °F 94% 30.39 in 0.2 mi Calm Calm - 0.00 in Fog Fog
11:15 PM 57.2 °F 57.2 °F 100% 30.40 in 1.2 mi Calm Calm - 0.00 in   Clear
11:35 PM 57.2 °F 55.4 °F 94% 30.39 in 3.0 mi Calm Calm - 0.00 in   Clear